TimeEST,TemperatureF,Dew PointF,Humidity,Sea Level PressureIn,VisibilityMPH,Wind Direction,Wind SpeedMPH,Gust SpeedMPH,PrecipitationIn,Events,Conditions,WindDirDegrees,DateUTC
12:00 AM,26.6,21.2,80,30.19,10.0,SE,3.5,-,N/A,,Clear,140,2013-02-19 05:00:00
12:21 AM,26.6,21.2,80,30.19,10.0,Calm,Calm,-,N/A,,Clear,0,2013-02-19 05:21:00
12:39 AM,26.6,21.2,80,30.19,10.0,Calm,Calm,-,N/A,,Clear,0,2013-02-19 05:39:00
1:00 AM,26.6,21.2,80,30.16,10.0,Calm,Calm,-,N/A,,Clear,0,2013-02-19 06:00:00
1:21 AM,26.6,21.2,80,30.15,10.0,Calm,Calm,-,N/A,,Clear,0,2013-02-19 06:21:00
2:00 AM,26.6,21.2,80,30.14,10.0,Calm,Calm,-,N/A,,Clear,0,2013-02-19 07:00:00
2:21 AM,26.6,21.2,80,30.14,10.0,Calm,Calm,-,N/A,,Clear,0,2013-02-19 07:21:00
2:42 AM,24.8,21.2,86,30.14,10.0,Calm,Calm,-,N/A,,Clear,0,2013-02-19 07:42:00
3:00 AM,24.8,21.2,86,30.14,10.0,Calm,Calm,-,N/A,,Clear,0,2013-02-19 08:00:00
3:21 AM,24.8,21.2,86,30.11,10.0,South,4.6,-,N/A,,Clear,180,2013-02-19 08:21:00
3:42 AM,26.6,21.2,80,30.10,10.0,South,4.6,-,N/A,,Clear,170,2013-02-19 08:42:00
4:00 AM,26.6,23.0,86,30.10,10.0,South,5.8,-,N/A,,Clear,180,2013-02-19 09:00:00
4:21 AM,26.6,23.0,86,30.10,10.0,South,4.6,-,N/A,,Clear,170,2013-02-19 09:21:00
4:42 AM,26.6,23.0,86,30.08,10.0,South,5.8,-,N/A,,Clear,180,2013-02-19 09:42:00
5:21 AM,30.2,23.0,75,30.06,10.0,South,4.6,-,N/A,,Clear,180,2013-02-19 10:21:00
5:42 AM,30.2,23.0,75,30.06,10.0,Calm,Calm,-,N/A,,Clear,0,2013-02-19 10:42:00
6:00 AM,32.0,23.0,69,30.06,10.0,South,3.5,-,N/A,,Clear,190,2013-02-19 11:00:00
6:21 AM,32.0,23.0,69,30.05,10.0,South,6.9,-,N/A,,Clear,190,2013-02-19 11:21:00
6:42 AM,32.0,23.0,69,30.04,10.0,SSW,5.8,-,N/A,,Clear,200,2013-02-19 11:42:00
7:21 AM,35.6,24.8,65,30.03,10.0,South,4.6,-,N/A,,Clear,190,2013-02-19 12:21:00
7:42 AM,35.6,24.8,65,30.02,10.0,South,5.8,-,N/A,,Clear,180,2013-02-19 12:42:00
8:00 AM,35.6,24.8,65,30.01,10.0,South,9.2,-,N/A,,Clear,180,2013-02-19 13:00:00
8:21 AM,39.2,24.8,56,30.01,10.0,SSW,8.1,-,N/A,,Clear,200,2013-02-19 13:21:00
9:00 AM,41.0,23.0,49,30.00,10.0,SSW,12.7,19.6,N/A,,Mostly Cloudy,210,2013-02-19 14:00:00
9:21 AM,42.8,23.0,46,29.99,10.0,SSW,10.4,18.4,N/A,,Overcast,210,2013-02-19 14:21:00
9:42 AM,42.8,23.0,46,29.99,10.0,SW,12.7,25.3,N/A,,Overcast,230,2013-02-19 14:42:00
10:00 AM,41.0,30.2,65,29.98,10.0,SW,15.0,25.3,N/A,,Overcast,220,2013-02-19 15:00:00
10:21 AM,39.2,32.0,75,29.97,10.0,SSW,9.2,18.4,N/A,,Overcast,210,2013-02-19 15:21:00
10:42 AM,41.0,32.0,70,29.98,10.0,SSW,10.4,-,N/A,,Overcast,210,2013-02-19 15:42:00
11:03 AM,39.2,32.0,75,29.97,10.0,SSW,6.9,-,N/A,,Overcast,210,2013-02-19 16:03:00
11:21 AM,37.4,33.8,87,29.95,7.0,SSW,6.9,16.1,N/A,,Overcast,200,2013-02-19 16:21:00
11:42 AM,37.4,35.6,93,29.95,7.0,SSW,4.6,-,N/A,,Overcast,200,2013-02-19 16:42:00
12:03 PM,37.4,35.6,93,29.93,7.0,SW,11.5,-,N/A,,Overcast,220,2013-02-19 17:03:00
12:21 PM,37.4,35.6,93,29.91,7.0,South,8.1,-,N/A,,Overcast,190,2013-02-19 17:21:00
12:42 PM,39.2,35.6,87,29.88,10.0,South,9.2,17.3,N/A,,Overcast,190,2013-02-19 17:42:00
1:03 PM,39.2,37.4,93,29.86,10.0,SSW,8.1,-,N/A,,Overcast,200,2013-02-19 18:03:00
1:21 PM,41.0,37.4,87,29.84,10.0,SSW,6.9,-,N/A,,Overcast,210,2013-02-19 18:21:00
2:03 PM,41.0,37.4,87,29.81,10.0,SSW,8.1,-,N/A,,Overcast,200,2013-02-19 19:03:00
2:21 PM,42.8,37.4,81,29.80,10.0,SSW,11.5,18.4,N/A,,Overcast,210,2013-02-19 19:21:00
2:42 PM,42.8,37.4,81,29.79,10.0,SSW,12.7,-,N/A,,Overcast,210,2013-02-19 19:42:00
3:03 PM,42.8,37.4,81,29.78,10.0,SSW,10.4,17.3,N/A,,Overcast,200,2013-02-19 20:03:00
3:21 PM,42.8,39.2,87,29.77,10.0,SSW,10.4,20.7,N/A,,Overcast,210,2013-02-19 20:21:00
3:42 PM,42.8,39.2,87,29.75,10.0,SSW,12.7,19.6,N/A,,Overcast,210,2013-02-19 20:42:00
4:03 PM,42.8,39.2,87,29.75,10.0,SSW,11.5,21.9,N/A,,Overcast,210,2013-02-19 21:03:00
4:21 PM,42.8,39.2,87,29.75,10.0,SSW,12.7,21.9,N/A,,Overcast,200,2013-02-19 21:21:00
4:42 PM,42.8,39.2,87,29.75,10.0,SSW,9.2,18.4,N/A,,Overcast,210,2013-02-19 21:42:00
5:03 PM,42.8,39.2,87,29.75,10.0,SW,15.0,21.9,N/A,,Overcast,230,2013-02-19 22:03:00
5:42 PM,42.8,39.2,87,29.78,10.0,WSW,12.7,18.4,N/A,,Overcast,250,2013-02-19 22:42:00
6:03 PM,42.8,39.2,87,29.77,7.0,SSW,4.6,-,N/A,,Overcast,210,2013-02-19 23:03:00
6:21 PM,42.8,39.2,87,29.78,10.0,SW,4.6,-,N/A,,Overcast,230,2013-02-19 23:21:00
7:24 PM,39.2,37.4,93,29.80,10.0,WSW,4.6,-,N/A,,Scattered Clouds,250,2013-02-20 00:24:00
7:42 PM,37.4,35.6,93,29.81,7.0,WSW,5.8,-,N/A,,Scattered Clouds,250,2013-02-20 00:42:00
8:03 PM,37.4,37.4,100,29.81,10.0,West,4.6,-,N/A,,Scattered Clouds,280,2013-02-20 01:03:00
8:24 PM,37.4,35.6,93,29.82,7.0,West,4.6,-,N/A,,Clear,260,2013-02-20 01:24:00
9:03 PM,35.6,33.8,93,29.83,7.0,West,5.8,-,N/A,,Clear,260,2013-02-20 02:03:00
9:24 PM,35.6,33.8,93,29.84,10.0,West,4.6,-,N/A,,Clear,270,2013-02-20 02:24:00
9:42 PM,35.6,32.0,87,29.84,10.0,WNW,5.8,-,N/A,,Clear,300,2013-02-20 02:42:00
10:03 PM,35.6,32.0,87,29.85,10.0,WNW,11.5,17.3,N/A,,Clear,290,2013-02-20 03:03:00
10:24 PM,35.6,30.2,81,29.85,10.0,WNW,9.2,17.3,N/A,,Clear,290,2013-02-20 03:24:00
10:42 PM,35.6,28.4,75,29.85,10.0,West,8.1,-,N/A,,Clear,280,2013-02-20 03:42:00
11:24 PM,33.8,24.8,70,29.86,10.0,WNW,8.1,-,N/A,,Clear,300,2013-02-20 04:24:00